Tiempo cada hora Murzabek

Hoy, 22 Octubre, Jueves

Tiempo Temperatura Precipitaciones Viento Presión Humedad
00:00 +10°C° 0 mm 2 mps 765 mmHg 46%
01:00 +10°C° 0 mm 2 mps 765 mmHg 46%
02:00 +9°C° 0 mm 2 mps 765 mmHg 47%
03:00 +10°C° 0 mm 2 mps 764 mmHg 47%
04:00 +10°C° 0 mm 2 mps 764 mmHg 48%
05:00 +10°C° 0 mm 2 mps 764 mmHg 48%
06:00 +10°C° 0 mm 3 mps 764 mmHg 49%
07:00 +12°C° 0 mm 2 mps 764 mmHg 48%
08:00 +13°C° 0 mm 2 mps 764 mmHg 47%
09:00 +14°C° 0 mm 2 mps 764 mmHg 47%
10:00 +15°C° 0 mm 2 mps 764 mmHg 45%
11:00 +16°C° 0 mm 2 mps 763 mmHg 43%
12:00 +17°C° 0 mm 2 mps 763 mmHg 41%
13:00 +19°C° 0 mm 1 mps 763 mmHg 40%
14:00 +19°C° 0 mm 1 mps 763 mmHg 39%
15:00 +17°C° 0 mm 0 mps 763 mmHg 38%
16:00 +19°C° 0 mm 1 mps 763 mmHg 41%
17:00 +18°C° 0 mm 1 mps 763 mmHg 43%
18:00 +16°C° 0 mm 2 mps 763 mmHg 46%
19:00 +15°C° 0 mm 2 mps 763 mmHg 53%
20:00 +14°C° 0 mm 2 mps 763 mmHg 59%
21:00 +12°C° 0 mm 3 mps 763 mmHg 65%
22:00 +13°C° 0 mm 2 mps 763 mmHg 67%
23:00 +13°C° 0 mm 2 mps 763 mmHg 70%

Mañana, 23 Octubre, Viernes

Tiempo Temperatura Precipitaciones Viento Presión Humedad
00:00 +13°C° 0 mm 2 mps 762 mmHg 72%
01:00 +12°C° 0 mm 2 mps 762 mmHg 69%
02:00 +12°C° 0 mm 2 mps 763 mmHg 65%
03:00 +12°C° 0 mm 2 mps 763 mmHg 62%
04:00 +12°C° 0 mm 2 mps 763 mmHg 59%
05:00 +13°C° 0 mm 2 mps 763 mmHg 55%
06:00 +13°C° 0 mm 2 mps 763 mmHg 52%
07:00 +14°C° 0 mm 2 mps 763 mmHg 50%
08:00 +14°C° 0 mm 3 mps 763 mmHg 48%
09:00 +16°C° 0 mm 3 mps 763 mmHg 46%
10:00 +18°C° 0 mm 3 mps 763 mmHg 42%
11:00 +19°C° 0 mm 3 mps 763 mmHg 38%
12:00 +21°C° 0 mm 3 mps 763 mmHg 34%
13:00 +21°C° 0 mm 3 mps 763 mmHg 32%
14:00 +22°C° 0 mm 3 mps 762 mmHg 30%
15:00 +23°C° 0 mm 2 mps 762 mmHg 27%
16:00 +20°C° 0 mm 2 mps 762 mmHg 32%
17:00 +19°C° 0 mm 1 mps 762 mmHg 37%
18:00 +16°C° 0 mm 1 mps 762 mmHg 41%
19:00 +16°C° 0 mm 1 mps 762 mmHg 41%
20:00 +16°C° 0 mm 1 mps 762 mmHg 40%
21:00 +16°C° 0 mm 2 mps 761 mmHg 40%
22:00 +16°C° 0 mm 2 mps 761 mmHg 40%
23:00 +16°C° 0 mm 2 mps 761 mmHg 40%

Pasado mañana, 24 Octubre, Sábado

Tiempo Temperatura Precipitaciones Viento Presión Humedad
00:00 +16°C° 0 mm 3 mps 760 mmHg 40%
01:00 +14°C° 0 mm 3 mps 760 mmHg 42%
02:00 +15°C° 0 mm 2 mps 760 mmHg 43%
03:00 +14°C° 0 mm 2 mps 759 mmHg 45%
04:00 +13°C° 0 mm 2 mps 759 mmHg 48%
05:00 +13°C° 0 mm 1 mps 759 mmHg 50%
06:00 +11°C° 0 mm 0 mps 759 mmHg 53%
07:00 +13°C° 0 mm 0 mps 759 mmHg 46%
08:00 +18°C° 0 mm 1 mps 759 mmHg 40%
09:00 +20°C° 0 mm 1 mps 759 mmHg 33%
10:00 +22°C° 0 mm 1 mps 759 mmHg 30%
11:00 +23°C° 0 mm 1 mps 759 mmHg 27%
12:00 +23°C° 0 mm 0 mps 758 mmHg 24%
13:00 +23°C° 0 mm 0 mps 758 mmHg 24%
14:00 +24°C° 0 mm 0 mps 758 mmHg 23%
15:00 +24°C° 0 mm 0 mps 758 mmHg 22%
16:00 +22°C° 0 mm 0 mps 758 mmHg 27%
17:00 +21°C° 0 mm 1 mps 758 mmHg 31%
18:00 +19°C° 0 mm 1 mps 758 mmHg 36%
19:00 +19°C° 0 mm 1 mps 758 mmHg 39%
20:00 +18°C° 0 mm 1 mps 758 mmHg 41%
21:00 +18°C° 0 mm 1 mps 758 mmHg 44%
22:00 +16°C° 0 mm 1 mps 758 mmHg 50%
23:00 +15°C° 0 mm 1 mps 758 mmHg 57%

, 25 Octubre, Domingo

Tiempo Temperatura Precipitaciones Viento Presión Humedad
00:00 +15°C° 0 mm 1 mps 757 mmHg 63%
01:00 +14°C° 0 mm 1 mps 757 mmHg 66%
02:00 +14°C° 0 mm 1 mps 757 mmHg 68%
03:00 +14°C° 0 mm 1 mps 757 mmHg 71%
04:00 +13°C° 0 mm 1 mps 757 mmHg 72%
05:00 +12°C° 0 mm 0 mps 757 mmHg 73%
06:00 +11°C° 0 mm 0 mps 757 mmHg 74%
07:00 +14°C° 0 mm 0 mps 757 mmHg 64%
08:00 +16°C° 0 mm 0 mps 757 mmHg 54%
09:00 +19°C° 0 mm 0 mps 757 mmHg 44%
10:00 +20°C° 0 mm 0 mps 757 mmHg 39%
11:00 +24°C° 0 mm 1 mps 757 mmHg 34%
12:00 +25°C° 0 mm 1 mps 757 mmHg 30%
13:00 +25°C° 0 mm 1 mps 757 mmHg 28%
14:00 +26°C° 0 mm 1 mps 757 mmHg 26%
15:00 +26°C° 0 mm 1 mps 757 mmHg 24%
16:00 +24°C° 0 mm 1 mps 757 mmHg 30%
17:00 +21°C° 0 mm 1 mps 757 mmHg 36%
18:00 +19°C° 0 mm 1 mps 757 mmHg 42%
19:00 +19°C° 0 mm 1 mps 757 mmHg 42%
20:00 +19°C° 0 mm 1 mps 758 mmHg 42%
21:00 +17°C° 0 mm 2 mps 758 mmHg 42%
22:00 +17°C° 0 mm 2 mps 758 mmHg 41%
23:00 +16°C° 0 mm 3 mps 758 mmHg 39%

25 Octubre, Domingo

Tiempo Temperatura Precipitaciones Viento Presión Humedad
00:00 +15°C° 0 mm 1 mps 757 mmHg 63%
01:00 +14°C° 0 mm 1 mps 757 mmHg 66%
02:00 +14°C° 0 mm 1 mps 757 mmHg 68%
03:00 +14°C° 0 mm 1 mps 757 mmHg 71%
04:00 +13°C° 0 mm 1 mps 757 mmHg 72%
05:00 +12°C° 0 mm 0 mps 757 mmHg 73%
06:00 +11°C° 0 mm 0 mps 757 mmHg 74%
07:00 +14°C° 0 mm 0 mps 757 mmHg 64%
08:00 +16°C° 0 mm 0 mps 757 mmHg 54%
09:00 +19°C° 0 mm 0 mps 757 mmHg 44%
10:00 +20°C° 0 mm 0 mps 757 mmHg 39%
11:00 +24°C° 0 mm 1 mps 757 mmHg 34%
12:00 +25°C° 0 mm 1 mps 757 mmHg 30%
13:00 +25°C° 0 mm 1 mps 757 mmHg 28%
14:00 +26°C° 0 mm 1 mps 757 mmHg 26%
15:00 +26°C° 0 mm 1 mps 757 mmHg 24%
16:00 +24°C° 0 mm 1 mps 757 mmHg 30%
17:00 +21°C° 0 mm 1 mps 757 mmHg 36%
18:00 +19°C° 0 mm 1 mps 757 mmHg 42%
19:00 +19°C° 0 mm 1 mps 757 mmHg 42%
20:00 +19°C° 0 mm 1 mps 758 mmHg 42%
21:00 +17°C° 0 mm 2 mps 758 mmHg 42%
22:00 +17°C° 0 mm 2 mps 758 mmHg 41%
23:00 +16°C° 0 mm 3 mps 758 mmHg 39%

26 Octubre, Lunes

Tiempo Temperatura Precipitaciones Viento Presión Humedad
00:00 +16°C° 0 mm 3 mps 758 mmHg 38%
01:00 +14°C° 0 mm 3 mps 758 mmHg 42%
02:00 +14°C° 0 mm 3 mps 759 mmHg 46%
03:00 +14°C° 0 mm 2 mps 759 mmHg 51%
04:00 +14°C° 0 mm 2 mps 759 mmHg 59%
05:00 +13°C° 0 mm 2 mps 759 mmHg 67%
06:00 +13°C° 0 mm 2 mps 760 mmHg 76%
07:00 +14°C° 0 mm 2 mps 760 mmHg 71%
08:00 +16°C° 0 mm 3 mps 760 mmHg 67%
09:00 +17°C° 0 mm 3 mps 761 mmHg 63%
10:00 +18°C° 0 mm 3 mps 761 mmHg 58%
11:00 +19°C° 0 mm 3 mps 761 mmHg 53%
12:00 +20°C° 0 mm 3 mps 761 mmHg 48%
13:00 +20°C° 0 mm 3 mps 761 mmHg 47%
14:00 +20°C° 0 mm 3 mps 761 mmHg 46%
15:00 +21°C° 0 mm 3 mps 761 mmHg 45%
16:00 +19°C° 0 mm 3 mps 761 mmHg 48%
17:00 +18°C° 0 mm 3 mps 761 mmHg 52%
18:00 +17°C° 0 mm 3 mps 761 mmHg 55%
19:00 +16°C° 0 mm 3 mps 762 mmHg 54%
20:00 +14°C° 0 mm 3 mps 762 mmHg 53%
21:00 +13°C° 0 mm 4 mps 762 mmHg 52%
22:00 +13°C° 0 mm 3 mps 762 mmHg 54%
23:00 +12°C° 0 mm 3 mps 762 mmHg 55%

27 Octubre, Martes

Tiempo Temperatura Precipitaciones Viento Presión Humedad
00:00 +11°C° 0 mm 3 mps 763 mmHg 56%
01:00 +11°C° 0 mm 3 mps 763 mmHg 57%
02:00 +10°C° 0 mm 3 mps 763 mmHg 57%
03:00 +10°C° 0 mm 3 mps 763 mmHg 57%
04:00 +10°C° 0 mm 3 mps 763 mmHg 60%
05:00 +9°C° 0 mm 3 mps 764 mmHg 62%
06:00 +9°C° 0 mm 3 mps 764 mmHg 64%
07:00 +10°C° 0 mm 4 mps 764 mmHg 61%
08:00 +11°C° 0 mm 4 mps 765 mmHg 57%
09:00 +12°C° 0 mm 5 mps 765 mmHg 54%
10:00 +14°C° 0 mm 5 mps 765 mmHg 50%
11:00 +15°C° 0 mm 5 mps 765 mmHg 47%
12:00 +17°C° 0 mm 6 mps 765 mmHg 43%
13:00 +16°C° 0 mm 6 mps 764 mmHg 44%
14:00 +16°C° 0 mm 7 mps 764 mmHg 45%
15:00 +16°C° 0 mm 7 mps 764 mmHg 47%
16:00 +15°C° 0 mm 7 mps 765 mmHg 54%
17:00 +12°C° 0 mm 7 mps 765 mmHg 61%
18:00 +11°C° 0 mm 7 mps 765 mmHg 68%
19:00 +10°C° 0 mm 7 mps 765 mmHg 71%
20:00 +10°C° 0 mm 6 mps 765 mmHg 74%
21:00 +10°C° 0 mm 6 mps 765 mmHg 77%
22:00 +9°C° 0 mm 7 mps 765 mmHg 78%
23:00 +9°C° 0 mm 7 mps 765 mmHg 80%
Mostrar más

Necesitamos Su Consentimiento

Meteoprog y nuestros Proveedores de Servicios pueden almacenar y acceder a sus datos personales como cookies, identificadores de dispositivo u otras tecnologías similares de su dispositivo y procesar dichos datos para personalizar contenido y anuncios, además de ofrecer funciones de redes sociales y analizar el tráfico.

  • Almacenar y/o acceder a información en su dispositivo

    Se puede almacenar o acceder a cookies, identificadores de dispositivo u otra información de su dispositivo para los fines anteriormente indicados.

  • Anuncios y contenido personalizados, medición de anuncios y contenido, percepciones del público, y desarrollo de productos

    Los anuncios y el contenido pueden personalizarse en base a su perfil. Se pueden añadir más datos para personalizar mejor los anuncios y contenidos. Se puede medir el rendimiento de los anuncios y contenidos. Se puede obtener la percepción sobre el público que ha visto los anuncios y contenidos. Dichos datos pueden usarse para desarrollar o mejorar la experiencia del usuario, sistemas y software.

Al hacer clic en ‘Estoy De Acuerdo’ usted permitirá el uso de las cookies, identificadores de dispositivo, balizas web u otras tecnologías similares indicadas. Su configuración puede cambiarse desde el navegador de su dispositivo.

Para ciertos fines, los intereses legítimos pueden ser considerados por encima del consentimiento. Puede leer más sobre ello en nuestra Política de Privacidad y Cookies.